N9902S KHOU-KHDC

Flight info

Callsign N9902S
Flight time 0h 39m
Altitude 37000
Route ELOCO6 LLA
Aircraft C700/M-SBDGHM1RWXY/LB2

Departure

Time 2026-05-04 02:07
Airport William P. Hobby Airport (KHOU)

Arrival

Time 2026-05-04 02:46
Airport Hammond Northshore Regional Airport (KHDC)
Time Latitude Longitude Altitude Speed Heading
2026-05-04 01:57 29.64808 -95.28626 46 ft 0 kts 93°
2026-05-04 02:04 29.64808 -95.28625 37 ft 2 kts 93°
2026-05-04 02:04 29.64825 -95.28610 46 ft 0 kts 31°
2026-05-04 02:05 29.64859 -95.28588 46 ft 13 kts 26°
2026-05-04 02:05 29.64973 -95.28560 46 ft 17 kts
2026-05-04 02:05 29.64991 -95.28560 46 ft 0 kts 359°
2026-05-04 02:06 29.65024 -95.28561 46 ft 10 kts 358°
2026-05-04 02:06 29.65072 -95.28528 46 ft 4 kts 110°
2026-05-04 02:06 29.65017 -95.28460 44 ft 27 kts 134°
2026-05-04 02:06 29.64651 -95.28024 52 ft 126 kts 137°
2026-05-04 02:07 29.63896 -95.27132 642 ft 177 kts 136°
2026-05-04 02:07 29.63017 -95.26039 1449 ft 191 kts 132°
2026-05-04 02:07 29.62149 -95.24826 2231 ft 196 kts 125°
2026-05-04 02:07 29.61706 -95.23293 3012 ft 217 kts 98°
2026-05-04 02:08 29.61525 -95.21450 4177 ft 245 kts 97°
2026-05-04 02:08 29.61235 -95.19449 5715 ft 259 kts 100°
2026-05-04 02:08 29.60915 -95.17349 7336 ft 274 kts 99°
2026-05-04 02:08 29.60602 -95.15145 8890 ft 285 kts 99°
2026-05-04 02:09 29.60278 -95.12855 10426 ft 297 kts 99°
2026-05-04 02:09 29.59922 -95.10404 11513 ft 324 kts 99°
2026-05-04 02:09 29.59542 -95.07803 12999 ft 334 kts 99°
2026-05-04 02:09 29.59156 -95.05134 14463 ft 345 kts 99°
2026-05-04 02:10 29.58974 -95.02344 15687 ft 357 kts 85°
2026-05-04 02:10 29.59365 -94.99503 16942 ft 365 kts 72°
2026-05-04 02:10 29.60147 -94.96694 18182 ft 374 kts 68°
2026-05-04 02:10 29.60947 -94.93805 19274 ft 384 kts 68°
2026-05-04 02:11 29.61754 -94.90837 20349 ft 393 kts 68°
2026-05-04 02:11 29.62584 -94.87809 21405 ft 402 kts 68°
2026-05-04 02:11 29.63424 -94.84706 22425 ft 412 kts 69°
2026-05-04 02:11 29.64145 -94.81476 23417 ft 422 kts 72°
2026-05-04 02:12 29.64781 -94.78146 24293 ft 430 kts 72°
2026-05-04 02:12 29.65499 -94.74783 25168 ft 436 kts 70°
2026-05-04 02:12 29.66281 -94.71433 26030 ft 444 kts 69°
2026-05-04 02:12 29.67053 -94.67961 26853 ft 452 kts 70°
2026-05-04 02:13 29.67796 -94.64416 27642 ft 460 kts 70°
2026-05-04 02:13 29.68567 -94.60816 28425 ft 467 kts 70°
2026-05-04 02:13 29.69373 -94.57168 29212 ft 475 kts 69°
2026-05-04 02:13 29.70187 -94.53452 29994 ft 483 kts 69°
2026-05-04 02:14 29.70995 -94.49680 30708 ft 489 kts 69°
2026-05-04 02:14 29.71823 -94.45811 31436 ft 494 kts 69°
2026-05-04 02:14 29.72659 -94.41957 32116 ft 498 kts 69°
2026-05-04 02:14 29.73488 -94.38125 32771 ft 503 kts 69°
2026-05-04 02:15 29.74331 -94.34199 33453 ft 507 kts 69°
2026-05-04 02:15 29.75166 -94.30276 34365 ft 503 kts 68°
2026-05-04 02:15 29.76002 -94.26371 35102 ft 502 kts 68°
2026-05-04 02:15 29.76842 -94.22474 35785 ft 502 kts 68°
2026-05-04 02:16 29.77676 -94.18579 36427 ft 501 kts 68°
2026-05-04 02:16 29.78504 -94.14683 37026 ft 501 kts 68°
2026-05-04 02:16 29.79346 -94.10749 37132 ft 512 kts 68°
2026-05-04 02:16 29.80211 -94.06721 37136 ft 525 kts 68°
2026-05-04 02:17 29.81088 -94.02580 37145 ft 538 kts 69°
2026-05-04 02:17 29.81973 -93.98369 37149 ft 544 kts 69°
2026-05-04 02:17 29.83767 -93.89877 37151 ft 546 kts 68°
2026-05-04 02:18 29.85558 -93.81386 37154 ft 546 kts 69°
2026-05-04 02:18 29.87341 -93.72891 37168 ft 546 kts 69°
2026-05-04 02:19 29.89124 -93.64379 37169 ft 546 kts 69°
2026-05-04 02:19 29.90898 -93.55873 37167 ft 546 kts 69°
2026-05-04 02:20 29.92670 -93.47353 37165 ft 547 kts 69°
2026-05-04 02:20 29.94436 -93.38826 37170 ft 547 kts 69°
2026-05-04 02:21 29.96197 -93.30300 37170 ft 547 kts 69°
2026-05-04 02:21 29.97956 -93.21749 37160 ft 548 kts 69°
2026-05-04 02:22 29.99698 -93.13254 37157 ft 548 kts 69°
2026-05-04 02:22 30.01449 -93.04685 37162 ft 549 kts 69°
2026-05-04 02:23 30.03196 -92.96103 37162 ft 550 kts 69°
2026-05-04 02:23 30.04940 -92.87510 37165 ft 550 kts 69°
2026-05-04 02:24 30.06396 -92.80308 37169 ft 550 kts 69°
2026-05-04 02:24 30.08132 -92.71697 37166 ft 551 kts 69°
2026-05-04 02:25 30.09861 -92.63084 37163 ft 551 kts 69°
2026-05-04 02:25 30.11587 -92.54459 37164 ft 551 kts 69°
2026-05-04 02:26 30.13303 -92.45846 36651 ft 546 kts 69°
2026-05-04 02:26 30.14140 -92.41613 35947 ft 536 kts 69°
2026-05-04 02:26 30.14966 -92.37443 35248 ft 527 kts 69°
2026-05-04 02:27 30.15787 -92.33330 34558 ft 523 kts 69°
2026-05-04 02:27 30.16593 -92.29283 33842 ft 525 kts 69°
2026-05-04 02:27 30.17416 -92.25111 33132 ft 526 kts 69°
2026-05-04 02:27 30.18224 -92.20988 32440 ft 526 kts 69°
2026-05-04 02:28 30.19033 -92.16871 31753 ft 526 kts 69°
2026-05-04 02:28 30.19845 -92.12755 31055 ft 525 kts 69°
2026-05-04 02:28 30.20651 -92.08647 30370 ft 524 kts 69°
2026-05-04 02:28 30.21452 -92.04542 29628 ft 521 kts 69°
2026-05-04 02:29 30.22232 -92.00537 28953 ft 514 kts 70°
2026-05-04 02:29 30.23025 -91.96475 28271 ft 508 kts 70°
2026-05-04 02:29 30.23787 -91.92567 27613 ft 502 kts 70°
2026-05-04 02:29 30.24558 -91.88605 26943 ft 496 kts 71°
2026-05-04 02:30 30.25298 -91.84789 26304 ft 489 kts 71°
2026-05-04 02:30 30.26036 -91.80976 25661 ft 483 kts 71°
2026-05-04 02:30 30.26773 -91.77170 25019 ft 476 kts 72°
2026-05-04 02:30 30.27483 -91.73499 24402 ft 470 kts 72°
2026-05-04 02:31 30.28189 -91.69832 23784 ft 464 kts 72°
2026-05-04 02:31 30.28886 -91.66209 23122 ft 456 kts 73°
2026-05-04 02:31 30.29568 -91.62661 22520 ft 449 kts 73°
2026-05-04 02:31 30.30240 -91.59165 21932 ft 443 kts 73°
2026-05-04 02:32 30.30902 -91.55709 21349 ft 437 kts 73°
2026-05-04 02:32 30.31555 -91.52300 20777 ft 431 kts 74°
2026-05-04 02:32 30.32197 -91.48936 20212 ft 425 kts 74°
2026-05-04 02:32 30.32832 -91.45618 19659 ft 420 kts 74°
2026-05-04 02:33 30.33457 -91.42342 19120 ft 414 kts 75°
2026-05-04 02:33 30.34071 -91.39115 18598 ft 408 kts 75°
2026-05-04 02:33 30.34676 -91.35923 18026 ft 403 kts 75°
2026-05-04 02:33 30.35275 -91.32768 17442 ft 399 kts 75°
2026-05-04 02:34 30.35867 -91.29645 16874 ft 395 kts 75°
2026-05-04 02:34 30.36452 -91.26555 16319 ft 391 kts 75°
2026-05-04 02:34 30.37018 -91.23482 15781 ft 388 kts 77°
2026-05-04 02:34 30.37309 -91.20390 15249 ft 386 kts 85°
2026-05-04 02:35 30.37370 -91.17291 14737 ft 383 kts 88°
2026-05-04 02:35 30.37407 -91.14220 14236 ft 380 kts 86°
2026-05-04 02:35 30.37603 -91.11200 13717 ft 370 kts 83°
2026-05-04 02:35 30.37843 -91.08311 13176 ft 351 kts 84°
2026-05-04 02:36 30.37997 -91.05547 12646 ft 336 kts 85°
2026-05-04 02:36 30.38121 -91.02903 12121 ft 323 kts 85°
2026-05-04 02:36 30.38270 -91.00350 11615 ft 313 kts 84°
2026-05-04 02:36 30.38421 -90.97875 11116 ft 304 kts 84°
2026-05-04 02:37 30.38557 -90.95490 10638 ft 297 kts 84°
2026-05-04 02:37 30.38690 -90.93131 10159 ft 291 kts 84°
2026-05-04 02:37 30.38821 -90.90813 9696 ft 285 kts 84°
2026-05-04 02:37 30.38952 -90.88536 9319 ft 283 kts 84°
2026-05-04 02:38 30.39080 -90.86259 8943 ft 284 kts 84°
2026-05-04 02:38 30.39209 -90.83981 8571 ft 283 kts 84°
2026-05-04 02:38 30.39335 -90.81716 8199 ft 282 kts 84°
2026-05-04 02:38 30.39463 -90.79455 7828 ft 280 kts 85°
2026-05-04 02:39 30.39587 -90.77211 7458 ft 279 kts 85°
2026-05-04 02:39 30.39712 -90.74977 7093 ft 277 kts 85°
2026-05-04 02:39 30.39835 -90.72754 6721 ft 276 kts 85°
2026-05-04 02:39 30.39958 -90.70543 6351 ft 274 kts 85°
2026-05-04 02:40 30.40077 -90.68358 5983 ft 268 kts 85°
2026-05-04 02:40 30.40191 -90.66286 5680 ft 248 kts 85°
2026-05-04 02:40 30.40295 -90.64363 5413 ft 232 kts 85°
2026-05-04 02:40 30.40395 -90.62548 5160 ft 220 kts 85°
2026-05-04 02:41 30.40490 -90.60806 4902 ft 215 kts 85°
2026-05-04 02:41 30.40584 -90.59088 4635 ft 214 kts 85°
2026-05-04 02:41 30.40678 -90.57365 4364 ft 214 kts 85°
2026-05-04 02:41 30.40770 -90.55651 4089 ft 213 kts 85°
2026-05-04 02:42 30.40863 -90.53935 3812 ft 213 kts 85°
2026-05-04 02:42 30.40955 -90.52229 3536 ft 212 kts 85°
2026-05-04 02:42 30.41046 -90.50525 3255 ft 212 kts 85°
2026-05-04 02:42 30.41138 -90.48826 2975 ft 211 kts 86°
2026-05-04 02:43 30.41228 -90.47129 2702 ft 211 kts 85°
2026-05-04 02:43 30.41371 -90.45433 2316 ft 211 kts 76°
2026-05-04 02:43 30.41993 -90.43925 2023 ft 202 kts 55°
2026-05-04 02:43 30.42914 -90.42813 1740 ft 184 kts 36°
2026-05-04 02:44 30.43995 -90.42133 1505 ft 170 kts 19°
2026-05-04 02:44 30.45092 -90.41860 1281 ft 153 kts
2026-05-04 02:44 30.46041 -90.41871 1103 ft 128 kts 356°
2026-05-04 02:44 30.46927 -90.41872 927 ft 128 kts 359°
2026-05-04 02:45 30.47802 -90.41880 779 ft 126 kts 358°
2026-05-04 02:45 30.48673 -90.41897 644 ft 124 kts 358°
2026-05-04 02:45 30.49536 -90.41907 501 ft 124 kts 359°
2026-05-04 02:45 30.50377 -90.41911 326 ft 117 kts 359°
2026-05-04 02:46 30.51190 -90.41913 136 ft 117 kts
2026-05-04 02:46 30.51928 -90.41915 47 ft 90 kts 359°
2026-05-04 02:46 30.52275 -90.41923 47 ft 29 kts 344°
2026-05-04 02:46 30.52385 -90.42035 44 ft 21 kts 309°
2026-05-04 02:47 30.52477 -90.42149 43 ft 11 kts 300°
2026-05-04 02:47 30.52433 -90.42212 46 ft 13 kts 205°
2026-05-04 02:47 30.52390 -90.42233 47 ft 1 kts 200°
2026-05-04 02:47 30.52367 -90.42243 47 ft 5 kts 205°
2026-05-04 02:48 30.52324 -90.42285 47 ft 5 kts 274°
2026-05-04 02:48 30.52339 -90.42278 45 ft 0 kts 59°